Regional Weather Roundup
Issued by NWS

Home | Current Version | Previous Version | Text Only | Print | Product List | Glossary On
Versions: 1 2 3 4 5 6 7 8 9 10 11 12 13 14 15 16 17 18 19 20 21 22 23 24 25 26 27 28 29 30 31 32 33 34 35 36 37 38 39 40 41 42 43 44 45 46 47 48 49 50
000
ASUS44 KLIX 301613
RWRLA
LOUISIANA WEATHER ROUNDUP
NATIONAL WEATHER SERVICE NEW ORLEANS LA
1100 AM CDT THU MAR 30 2017

NOTE: "FAIR" INDICATES FEW OR NO CLOUDS BELOW 12,000 FEET WITH NO
      SIGNIFICANT WEATHER AND/OR OBSTRUCTIONS TO VISIBILITY.
      SKY/WX - SKY CONDITION AND SIGNIFICANT WEATHER.
      TMP - AIR TEMPERATURE.    DP   - DEWPOINT TEMPERATURE.
      RH  - RELATIVE HUMIDITY.  PRES - PRESSURE.
      HX  - HEAT INDEX.         WCI  - WIND CHILL INDEX.

*  THESE STATIONS ARE NOT NWS OR FAA STATIONS AND ARE NOT UNDER
   NWS QUALITY CONTROL.

LAZ040-048-061>063-065-066-069-301700-
SOUTHEAST LOUISIANA

CITY           SKY/WX    TMP DP  RH WIND       PRES   REMARKS
N.O. INTL ARPT TSTM      63  60  90 SE5       29.95R FOG
N.O. LAKEFRONT TSTM      66  61  84 W6        29.97R
N.O. DOWNTOWN* NOT AVBL
RESERVE*       NOT AVBL
SLIDELL        LGT RAIN  61  60  97 CALM      29.95F
BATON ROUGE    TSTM      64  60  87 S8        29.84R
BOOTHVILLE     CLOUDY    76  71  85 S10       29.92R
BELLE CHASSE   TSTM      64  61  90 NE6       29.96S FOG
BOGALUSA*      NOT AVBL
GALLIANO*      TSTM      62  58  86 NW10      29.95R
NEW ROADS*     CLOUDY    65  61  85 S6        29.86R
GONZALES*      LGT RAIN  64  61  91 SE6       29.88F
HAMMOND*       LGT RAIN  63  61  94 SE10      29.91F
HOUMA*         RAIN      61  61 100 N9        29.91F
PORT FOURCHON* FOG       63  59  88 NW20G33   29.95R VSB 3/4

$$

LAZ041-044-053-054-301700-
SOUTHWEST LOUISIANA

CITY           SKY/WX    TMP DP  RH WIND       PRES   REMARKS
LAKE CHARLES   PTSUNNY   69  61  75 N9        29.85S
LAFAYETTE      CLOUDY    70  65  84 SW5       29.85R
PATTERSON      CLOUDY    63  60  90 SE6       29.85F
SALT POINT       N/A     64  61  90 E3        29.85F
NEW IBERIA     CLOUDY    66  61  84 S5        29.86R
CHENAULT AIRPK MOSUNNY   68  61  77 N8        29.86S

$$

LAZ027-028-301700-
CENTRAL LOUISIANA

CITY           SKY/WX    TMP DP  RH WIND       PRES   REMARKS
FORT POLK      MOSUNNY   70  52  52 NW14      29.85F
ALEXANDRIA INT PTSUNNY   66  57  72 W14       29.83S
ALEXANDRIA     CLOUDY    67  61  81 W8        29.83S

$$

LAZ001-002-301700-
NORTHWEST LOUISIANA

CITY           SKY/WX    TMP DP  RH WIND       PRES   REMARKS
SHREVEPORT     MOSUNNY   63  45  51 W10G18    29.84F
BARKSDALE AFB  NOT AVBL
DTN SHREVEPORT MOSUNNY   62  45  53 W12G20    29.85F

$$

LAZ014-016-301700-
NORTHEAST LOUISIANA

CITY           SKY/WX    TMP DP  RH WIND       PRES   REMARKS
MONROE         PTSUNNY   66  54  65 W17       29.82F
TALLULAH       NOT AVBL

$$




USA.gov is the U.S. government's official web portal to all federal, state and local government web resources and services.